Regional Weather Roundup
Issued by NWS Green Bay, WI

Home | Current Version | Previous Version | Text Only | Print | Product List | Glossary On
Versions: 1 2 3 4 5 6 7 8 9 10 11 12 13 14 15 16 17 18 19 20 21 22 23 24 25 26 27 28 29 30 31 32 33 34 35 36 37 38 39 40 41 42 43 44 45 46 47 48 49 50
000
ASUS43 KGRB 030211
RWRGRB

NORTH-CENTRAL AND NORTHEAST WISCONSIN REGIONAL WEATHER ROUNDUP
NATIONAL WEATHER SERVICE GREEN BAY WI
900 PM CDT TUE JUN 02 2015

WIZ005-009-010>012-018-019-030300-
NORTH CENTRAL WISCONSIN

CITY           SKY/WX    TMP DP  RH WIND       PRES   REMARKS
IRONWOOD       PTCLDY    66  41  39 S6        29.95S
MANITOWISH WTR PTCLDY    60  39  46 S5        30.01S
ARBOR VITAE    PTCLDY    63  40  43 S3        30.02S
EAGLE RIVER    MOCLDY    60  37  41 SE3       30.02S
LAND O LAKES   MOCLDY    60  37  42 CALM      30.03S
RHINELANDER    MOCLDY    62  40  44 SE3       30.03F
PHILLIPS       CLOUDY    62  44  51 SE3       30.00S
ANTIGO         MOCLDY    57  45  62 SE9       30.05S
TOMAHAWK       MOCLDY    55  46  71 CALM      30.03S
MERRILL        NOT AVBL
$$

WIZ013-073-030300-
NORTHEAST WISCONSIN

CITY           SKY/WX    TMP DP  RH WIND       PRES   REMARKS
IRON MOUNTAIN  CLEAR     61  42  49 S9        30.04S
MARINETTE      CLEAR     59  37  44 S7        30.06F
OCONTO         CLEAR     58  36  43 S6        30.06F
$$

WIZ017-030-035>037-045-030300-
CENTRAL WISCONSIN

CITY           SKY/WX    TMP DP  RH WIND       PRES   REMARKS
MEDFORD        MOCLDY    59  45  59 S3        30.02S
WAUSAU         MOCLDY    64  44  48 SE7       30.01S
MOSINEE        CLEAR     63  43  48 S6        30.03F
MARSHFIELD     PTCLDY    62  46  55 S5        30.02S
WISC RAPIDS    MOCLDY    64  41  42 S5        30.03F
STEVENS POINT  MOCLDY    62  42  47 SE5       30.03S
WAUPACA        MOCLDY    63  40  44 E7        30.05R
SHAWANO        PTCLDY    61  40  47 SE6       30.05F
CLINTONVILLE   MOCLDY    59  39  47 SE3       30.05S
$$

WIZ038-039-048-051-030300-
FOX VALLEY

CITY           SKY/WX    TMP DP  RH WIND       PRES   REMARKS
NWS GREEN BAY  PTCLDY    57  41  55 SE6       30.06F
APPLETON       PTCLDY    61  41  48 SE8       30.06F
OSHKOSH        PTCLDY    60  45  57 SE7       30.05S
FOND DU LAC    PTCLDY    59  44  57 SE10      30.06S
$$

WIZ022-050-052-030300-
EAST CENTRAL WISCONSIN

CITY           SKY/WX    TMP DP  RH WIND       PRES   REMARKS
STURGEON BAY   CLEAR     55  32  41 S5        30.11S
MANITOWOC      CLEAR     50  46  86 S3        30.09S
SHEBOYGAN      PTCLDY    54  43  66 S3        30.08F
$$

LMZ563-521-522-541>543-030300-
LAKESHORE

STATION/POSITION TIME  TEMP    WIND        PRES    VSBY  WAVE
                       AIR SEA DIR/SP/G                  HT/PER
                 (UTC) (F)     (DEG/KT/KT) (MB)    (MI)  (FT/S)
SHEBOYGAN LKSHOR 0200   49     180/  5/  5 1019.4S
KEWAUNEE LKSHORE 0100   51     180/  4/  7 1018.1F
ALGOMA MARINA    0139          190/  3/  5   N/A
NORTHPORT PIER   0100   49     160/  8/ 11 1018.6F
N MID LAKE BUOY  0150   42 37  190/  8/  8 1019.9R         0
SISTER BAY LKSHO 0118   54     140/ 12/ 15   N/A
CHAMBERS ISLAND  0100   62     150/  5/ 10 1018.6S
MENOMINEE LKSHOR 0100   62     170/  6/ 10 1019.0S
$$


USA.gov is the U.S. government's official web portal to all federal, state and local government web resources and services.